Location: Ljubljana
(46.0552°N, 14.5144°E)
Time: 21:45:06
(UTC+02:00)

ISS - Visible Passes

Search period start: 27 May 2018 00:00
Search period end: 06 June 2018 00:00
Orbit: 402 x 407 km, 51.6° (Epoch: 27 May)

Date Brightness Start Highest point End Pass type
(mag) Time Alt. Az. Time Alt. Az. Time Alt. Az.
27 May -2.7 00:22:55 10° WNW 00:26:04 42° NNE 00:26:26 40° NE visible
27 May -2.0 21:53:43 10° WNW 21:56:43 32° N 21:59:43 10° ENE visible
27 May -2.2 23:30:42 10° WNW 23:33:44 34° N 23:35:44 17° ENE visible
28 May -1.7 01:07:10 10° WNW 01:08:21 20° WNW 01:08:21 20° WNW visible
28 May -1.9 22:38:26 10° WNW 22:41:22 30° N 22:44:19 10° ENE visible
29 May -3.2 00:14:58 10° WNW 00:17:42 55° NNW 00:17:42 55° NNW visible
29 May -1.9 21:46:03 10° WNW 21:48:59 29° N 21:51:55 10° ENE visible
29 May -2.9 23:22:46 10° WNW 23:25:56 47° NNE 23:27:06 31° ENE visible
30 May -1.1 00:59:21 10° WNW 00:59:44 12° WNW 00:59:44 12° WNW visible
30 May -2.4 22:30:32 10° NW 22:33:36 36° NNE 22:36:31 11° E visible
31 May -2.7 00:06:59 10° WNW 00:09:09 36° W 00:09:09 36° W visible
31 May -2.1 21:38:14 10° WNW 21:41:12 31° N 21:44:10 10° ENE visible
31 May -3.9 23:14:43 10° WNW 23:18:00 81° NNE 23:18:35 56° ESE visible
01 Jun -3.2 22:22:29 10° WNW 22:25:42 53° NNE 22:28:03 17° E visible
01 Jun -1.9 23:59:10 10° WNW 00:00:41 21° W 00:00:41 21° W visible
02 Jun -2.6 21:30:13 10° NW 21:33:20 39° NNE 21:36:26 10° E visible
02 Jun -3.6 23:06:42 10° WNW 23:09:54 51° SW 23:10:11 49° SSW visible
03 Jun -3.9 22:14:22 10° WNW 22:17:39 86° SSW 22:19:42 21° ESE visible
03 Jun -1.2 23:51:53 10° W 23:52:20 12° WSW 23:52:20 12° WSW visible
04 Jun -3.4 21:22:05 10° WNW 21:25:20 61° NNE 21:28:34 10° ESE visible
04 Jun -2.4 22:58:53 10° W 23:01:36 24° SW 23:01:52 24° SSW visible
05 Jun -3.1 22:06:20 10° WNW 22:09:26 42° SW 22:11:27 19° SSE visible
